Szeged, Hungary

3:12 PM CEST on August 18, 2017 (GMT +0200)
Szeged

Weather History for LHUD - January, 2014

Change the Weather History Date:

Monday, January 20, 2014

  Actual Average (LRAR) Record (LRAR)
Temperature  
Mean Temperature 52 °F -  
Max Temperature 58 °F 39 °F 57 °F (2009)
Min Temperature 45 °F 26 °F 12 °F (2017)
Degree Days  
Heating Degree Days 14    
Growing Degree Days 2 (Base 50)    
Moisture  
Dew Point 45 °F    
Average Humidity 82    
Maximum Humidity 93    
Minimum Humidity 67    
Precipitation  
Precipitation 0.00 in 0.03 in - ()
Sea Level Pressure  
Sea Level Pressure 29.65 in    
Wind  
Wind Speed 11 mph ()    
Max Wind Speed 18 mph    
Max Gust Speed -    
Visibility 10.0 miles    
Events Rain    
Averages and records for this station are not official NWS values.
T = Trace of Precipitation, MM = Missing Value Source: Averaged Metar Reports

Daily Weather History Graph

Daily Weather History Graph

Search for Another Location

Airport or City:

Trip Planner

Search our weather history database for the weather conditions in past years. The results will help you decide how hot, cold, wet, or windy it might be!

Date:

Astronomy

Jan. 20, 2014 Rise Set
Actual Time 7:15 AM CET 4:26 PM CET
Civil Twilight 6:41 AM CET 4:59 PM CET
Nautical Twilight 6:04 AM CET 5:36 PM CET
Astronomical Twilight 5:29 AM CET 6:12 PM CET
Moon 9:01 PM CET (1/20) 8:50 AM CET (1/20)
Length of Visible Light 10h 17m
Length of Day
9h 11m
Waning Gibbous, 84% of the Moon is Illuminated
Jan 20
Waning Gibbous
Jan 24
Last Quarter
Jan 30
New
Feb 6
First Quarter
Feb 15
Full

Hourly Weather History & Observations

Time (CET) Temp. Windchill Dew Point Humidity Pressure Visibility Wind Dir Wind Speed Gust Speed Precip Events Conditions
12:00 AM 49 °F - 44 °F 79% 29.71 in 16 mi SE 11.2 mph - -   Partly Cloudy
12:45 AM 50.0 °F - 44.6 °F 82% 29.71 in 6.2 mi SSE 13.8 mph - N/A Rain Light Rain
1:00 AM 50 °F - 44 °F 75% 29.70 in 12 mi SSE 13.4 mph - - Rain Light Rain
1:29 AM 50.0 °F - 44.6 °F 82% 29.68 in - SSE 18.4 mph - N/A   Unknown
1:30 AM 50.0 °F - 44.6 °F 82% 29.68 in 6.2 mi SSE 18.4 mph - N/A Rain Light Rain
1:45 AM 48.2 °F - 44.6 °F 87% 29.68 in 6.2 mi SSE 18.4 mph - N/A Rain Light Rain
2:00 AM 49 °F - 44 °F 77% 29.69 in 16 mi SSE 17.9 mph - - Rain Light Rain
2:45 AM 48.2 °F - 44.6 °F 87% 29.68 in 6.2 mi SSE 15.0 mph - N/A Rain Light Rain
3:00 AM 48 °F - 45 °F 86% 29.68 in 9 mi SSE 15.7 mph - - Rain Light Rain
3:45 AM 48.2 °F - 44.6 °F 87% 29.65 in 6.2 mi SSE 13.8 mph - N/A Rain Light Rain
4:00 AM 48 °F - 45 °F 85% 29.67 in 9 mi SSE 13.4 mph - - Rain Light Rain
4:45 AM 48.2 °F - 44.6 °F 87% 29.65 in 6.2 mi SE 13.8 mph - N/A Rain Light Rain
5:00 AM 48 °F - 44 °F 81% 29.65 in 12 mi SE 13.4 mph - - Rain Light Rain
5:15 AM 48.2 °F - 44.6 °F 87% 29.65 in - SE 11.5 mph - N/A   Clear
5:45 AM 46.4 °F 41.1 °F 42.8 °F 87% 29.65 in - SE 11.5 mph - N/A   Clear
6:00 AM 47 °F - 43 °F 82% 29.64 in 19 mi SE 11.2 mph - - Rain Light Rain
6:15 AM 46.4 °F 41.5 °F 42.8 °F 87% 29.65 in - SE 10.4 mph - N/A   Clear
6:45 AM 44.6 °F 39.7 °F 42.8 °F 93% 29.65 in - SE 9.2 mph - N/A   Clear
7:00 AM 45 °F - 42 °F 86% 29.65 in 9 mi SE 8.9 mph - -   Partly Cloudy
7:15 AM 46.4 °F 41.9 °F 42.8 °F 87% 29.65 in - SE 9.2 mph - N/A   Clear
7:45 AM 46.4 °F 42.4 °F 42.8 °F 87% 29.65 in - SE 8.1 mph - N/A   Clear
8:00 AM 46 °F - 42 °F 80% 29.64 in 11 mi SE 8.9 mph - -   Partly Cloudy
8:15 AM 46.4 °F 42.4 °F 42.8 °F 87% 29.65 in - SSE 8.1 mph - N/A   Clear
8:45 AM 46.4 °F 41.1 °F 42.8 °F 87% 29.65 in - SSE 11.5 mph - N/A   Clear
9:00 AM 47 °F - 43 °F 80% 29.65 in 16 mi SSE 11.2 mph - -   Partly Cloudy
9:15 AM 48.2 °F - 42.8 °F 82% 29.65 in - SSE 12.7 mph - N/A   Clear
9:45 AM 48.2 °F - 44.6 °F 87% 29.65 in - SSE 11.5 mph - N/A   Clear
10:00 AM 49 °F - 44 °F 77% 29.65 in 16 mi SSE 11.2 mph - -   Partly Cloudy
10:15 AM 50.0 °F - 44.6 °F 82% 29.65 in - SSE 11.5 mph - N/A   Clear
10:45 AM 50.0 °F - 44.6 °F 82% 29.65 in - SSE 13.8 mph - N/A   Clear
11:00 AM 51 °F - 45 °F 74% 29.65 in 19 mi SSE 13.4 mph - -   Partly Cloudy
11:15 AM 51.8 °F - 46.4 °F 82% 29.65 in - South 10.4 mph - N/A   Clear
11:45 AM 53.6 °F - 46.4 °F 77% 29.65 in - SSE 8.1 mph - N/A   Clear
12:00 PM 53 °F - 46 °F 71% 29.64 in 19 mi SSE 6.7 mph - -   Partly Cloudy
12:15 PM 53.6 °F - 48.2 °F 82% 29.62 in - SSE 10.4 mph - N/A   Clear
12:45 PM 55.4 °F - 48.2 °F 77% 29.62 in - SSE 10.4 mph - N/A   Clear
1:00 PM 55 °F - 49 °F 73% 29.62 in 22 mi SSE 11.2 mph - -   Partly Cloudy
1:15 PM 59.0 °F - 51.8 °F 77% 29.62 in 6.2 mi SSE 9.2 mph - N/A   Partly Cloudy
1:45 PM 57.2 °F - 48.2 °F 72% 29.62 in 6.2 mi SSE 10.4 mph - N/A   Scattered Clouds
2:00 PM 56 °F - 49 °F 69% 29.61 in 22 mi SSE 8.9 mph - -   Partly Cloudy
2:15 PM 57.2 °F - 48.2 °F 72% 29.62 in 6.2 mi SSE 9.2 mph - N/A   Mostly Cloudy
2:45 PM 55.4 °F - 48.2 °F 77% 29.62 in 6.2 mi SSE 8.1 mph - N/A   Mostly Cloudy
3:00 PM 56 °F - 48 °F 67% 29.62 in 19 mi SSE 8.9 mph - -   Partly Cloudy
3:15 PM 55.4 °F - 48.2 °F 77% 29.62 in - SSE 9.2 mph - N/A   Clear
3:45 PM 55.4 °F - 48.2 °F 77% 29.62 in - SE 8.1 mph - N/A   Clear
4:00 PM 54 °F - 49 °F 77% 29.63 in 12 mi SE 8.9 mph - -   Partly Cloudy
4:11 PM 53.6 °F - 50.0 °F 88% 29.65 in 6.2 mi SSE 8.1 mph - N/A Rain Light Rain
4:15 PM 53.6 °F - 50.0 °F 88% 29.62 in 6.2 mi SSE 8.1 mph - N/A Rain Light Rain
4:45 PM 53.6 °F - 50.0 °F 88% 29.62 in 6.2 mi ESE 6.9 mph - N/A Rain Light Rain
5:00 PM 53 °F - 49 °F 83% 29.63 in 7 mi ESE 6.7 mph - - Rain Light Rain
5:15 PM 53.6 °F - 48.2 °F 82% 29.65 in 6.2 mi SSE 9.2 mph - N/A   Mostly Cloudy
5:45 PM 51.8 °F - 48.2 °F 88% 29.65 in - SSE 9.2 mph - N/A   Clear
6:00 PM 52 °F - 47 °F 79% 29.64 in 9 mi SSE 8.9 mph - - Rain Light Rain
6:15 PM 51.8 °F - 46.4 °F 82% 29.65 in 6.2 mi SSE 8.1 mph - N/A Rain Light Rain
6:45 PM 51.8 °F - 46.4 °F 82% 29.65 in - SSE 8.1 mph - N/A   Clear
7:00 PM 51 °F - 46 °F 79% 29.64 in 9 mi SSE 8.9 mph - - Rain Light Rain
7:15 PM 50.0 °F - 46.4 °F 87% 29.65 in 6.2 mi SSE 12.7 mph - N/A   Scattered Clouds
7:45 PM 50.0 °F - 44.6 °F 82% 29.65 in - SSE 10.4 mph - N/A   Clear
8:00 PM 50 °F - 45 °F 77% 29.65 in 12 mi SSE 8.9 mph - -   Partly Cloudy
8:15 PM 48.2 °F - 44.6 °F 87% 29.65 in - SSE 8.1 mph - N/A   Clear
8:45 PM 48.2 °F - 42.8 °F 82% 29.65 in - SSE 10.4 mph - N/A   Clear
9:00 PM 47 °F - 43 °F 82% 29.65 in 12 mi SSE 8.9 mph - -   Partly Cloudy
9:45 PM 46.4 °F 41.5 °F 42.8 °F 87% 29.65 in - SSE 10.4 mph - N/A   Clear
10:00 PM 47 °F - 43 °F 81% 29.66 in 9 mi SSE 11.2 mph - -   Partly Cloudy
10:45 PM 46.4 °F 40.7 °F 42.8 °F 87% 29.65 in - SSE 12.7 mph - N/A   Clear
11:00 PM 47 °F - 43 °F 82% 29.66 in 9 mi SSE 13.4 mph - -   Partly Cloudy
11:45 PM 46.4 °F 41.5 °F 42.8 °F 87% 29.65 in - SSE 10.4 mph - N/A   Clear